一网星座-0617星 (ONEWEB-0617)

导读 | 星芒AI

ONEWE-0617 是 OneWeb 卫星通信网络中的一颗低轨通信卫星,旨在为全球提供高速互联网服务。该卫星由阿丽亚娜航天公司制造,于2022年发射,部署在约1200公里高的近地轨道。OneWeb 项目由多个卫星组成,致力于填补数字鸿沟,特别是在偏远和农村地区。ONEWE-0617 在增强全球通信覆盖、支持航空和航海连接方面发挥着重要作用。

基本信息
目录编号:
55158
目录名称:
ONEWEB-0617
国际标识:
2023-004U
轨道中心:
EARTH
卫星名称:
一网星座-0617星
卫星全名:
一网星座-0617星 (ONEWEB-0617)
卫星状态:
在轨 (已飞行1024 天)
发射日期:
2023-01-10 UTC
国别 :
英国 (GB)
星等 :
--
轨道信息
数据来源 国际轨道数据 AOE轨道数据
星历时间 2025-10-30T05:06:42+0800
10小时前
查看轨道信息
2025-10-29T09:00:00+0800
1天前
查看轨道信息
半长轴 7595.814km 7595.832km
偏心率 0.0001615 0.0001647
轨道倾角 87.884° 87.883°
近地点辐角 86.052° 83.536°
升交点赤经 66.930° 67.095°
平近点角 274.079° 282.643°
近地点 1216.452km 1216.445km
远地点 1218.906km 1218.949km
周期 109.805分钟 109.805分钟
每日圈数 13.114185 13.114139
详细信息
平衡模式:
三轴稳定
覆盖范围:
全球
运营商:
一网卫星公司
运营商所在国:
英国
制造商(研发单位):
一网卫星公司
制造商所在国:
英国
使用方式:
暂无
卫星简介
OneWeb卫星网络由648颗重约125公斤的微型卫星组成,运行在1200公里的轨道上。 每颗卫星都能够提供至少每秒8千兆位的吞吐量,以使用其高吞吐量的Ku频段有效载荷为家庭和移动平台提供互联网接入。该卫星仍在工作。
2D轨道图
3D轨道图
轨道高度分析图
轨道倾角分析图
轨道综合分析图
查看轨道综合分析图